Regional Weather Roundup
Issued by NWS

Home | Current Version | Previous Version | Text Only | Print | Product List | Glossary Off
Versions: 1 2 3 4 5 6 7 8 9 10 11 12 13 14 15 16 17 18 19 20 21 22 23 24 25 26 27 28 29 30 31 32 33 34 35 36 37 38 39 40 41 42 43 44 45 46 47 48 49 50

000
ASUS43 KLOT 020312
RWRIL

ILLINOIS REGIONAL WEATHER ROUNDUP
NATIONAL WEATHER SERVICE CHICAGO/ROMEOVILLE IL
1000 PM CDT WED JUL 01 2015

NOTE: "FAIR" INDICATES FEW OR NO CLOUDS BELOW 12,000 FEET WITH NO
SIGNIFICANT WEATHER AND/OR OBSTRUCTIONS TO VISIBILITY.

* THESE STATIONS ARE NOT UNDER NWS QUALITY CONTROL. THEY ALSO MAY NOT
  REPORT WEATHER SUCH AS PRECIPITATION OR FOG.

ILZ001-002-007-009-015-016-024-020400-
NORTHWEST ILLINOIS

CITY           SKY/WX    TMP DP  RH WIND       PRES   REMARKS
MOLINE         MOCLDY    68  55  63 NE12      29.95R
STERLING*      CLOUDY    64  55  72 E8        29.97R
SAVANNA*       MOCLDY    63  53  68 NE8       29.97R
$$

ILZ003-004-008-010-011-017-018-020400-
NORTH CENTRAL ILLINOIS

CITY           SKY/WX    TMP DP  RH WIND       PRES   REMARKS
ROCKFORD       MOCLDY    60  51  72 E9        30.01R
FREEPORT*      MOCLDY    59  54  82 NE5       30.01R
ROCHELLE*      CLOUDY    60  53  79 E8        30.00R
DE KALB*       CLOUDY    55  50  82 E10       30.01R
PERU*          CLOUDY    63  55  75 E10       29.98R
$$

ILZ005-006-012>014-019>023-020400-
NORTHEAST ILLINOIS

CITY           SKY/WX    TMP DP  RH WIND       PRES   REMARKS
CHICAGO-OHARE  CLOUDY    56  50  80 NE7       30.00S
CHICAGO-MIDWAY CLOUDY    58  52  80 NE8       30.00R
AURORA         CLOUDY    59  50  72 NE12      29.99S
LANSING*       MOCLDY    58  50  76 N8        30.00S
JOLIET*        LGT RAIN  58  55  88 NE8       29.99S
WAUKEGAN       MOCLDY    53  50  89 N3        30.01R
DUPAGE AIRPORT MOCLDY    56  50  80 NE7       29.99S
KANKAKEE*      MOCLDY    58  54  84 NE8       29.99R
WHEELING       MOCLDY    55  50  83 N6        30.02S
MORRIS*        CLOUDY    59  53  79 E7        29.96R
ROMEOVILLE*    MOCLDY    57  51  81 E10       29.99F
NORTHERLY ISL    N/A     55  50  83 N10         N/A
$$

LMZ740>746-020400-
SOUTHERN LAKE MICHIGAN

STATION/POSITION SKY/WX   TEMP    WIND        PRES    VSBY  WAVE
                          AIR SEA DIR/SP/G                  HT/PER
                          (F)     (DEG/KT/KT) (MB)    (MI)  (FT/S)
HARRISON CRIB              55      10/ 10/ 12   N/A
BURNHAM HARBOR             55      40/  5/ 12   N/A
CALUMET HARBOR             57     360/  9/ 12   N/A
BURNS HARBOR               59      20/ 11/ 13 1015.9R
MICHIGAN CITY              58     360/ 13/ 14   N/A
MICHIGAN CITY 6N           59 64   20/ 12/ 16   N/A           3/ 4
ST. JOSEPH                 60 63                N/A           3/ 4
$$

ILZ025>027-034>036-040-047-049-050-058-095>099-020400-
WEST-CENTRAL ILLINOIS

CITY           SKY/WX    TMP DP  RH WIND       PRES   REMARKS
QUINCY         MOCLDY    72  66  81 E12       29.89R
GALESBURG*     MOCLDY    68  61  78 NE8       29.94R
MACOMB*        MOCLDY    68  65  92 E7        29.94R
JACKSONVILLE*  CLOUDY    73  69  88 E7        29.90R
PITTSFIELD*    RAIN      73  70  91 NE6       29.90R
$$

ILZ028>032-037-038-041>044-048-051>054-059>061-020400-
CENTRAL ILLINOIS

CITY           SKY/WX    TMP DP  RH WIND       PRES   REMARKS
PONTIAC        PTCLDY    63  56  80 E13       29.98R
BLOOMINGTON    PTCLDY    65  62  90 E13       29.97R
DECATUR        CLOUDY    70  64  81 NE10      29.93R
PEORIA         CLOUDY    71  60  68 E8        29.94R
LACON*         PTCLDY    65  59  82 E10       29.95R
LINCOLN*       CLOUDY    70  64  80 NE9       29.93R
SPRINGFIELD    MOCLDY    73  66  78 E9        29.91R
TAYLORVILLE    CLOUDY    70  66  88 E8        29.91R
$$

ILZ033-039-045-046-055>057-062-063-020400-
EAST-CENTRAL ILLINOIS

CITY           SKY/WX    TMP DP  RH WIND       PRES   REMARKS
CHAMPAIGN      MOCLDY    67  60  78 NE13      29.94R
DANVILLE*      MOCLDY    63  57  81 NE8       29.93R
RANTOUL*       CLEAR     66  59  80 NE9       29.95S
MATTOON        CLOUDY    70  66  87 NE6       29.91R
PARIS*         MOCLDY    70  65  85 NE7       29.93R
$$

ILZ079-100>102-020400-
SOUTHWEST ILLINOIS

CITY           SKY/WX    TMP DP  RH WIND       PRES   REMARKS
ALTON          CLOUDY    72  72 100 N6        29.88F
BELLEVILLE     MOCLDY    71  71  99 CALM      29.87R
CAHOKIA*       CLOUDY    72  69  90 SE3       29.86R
SPARTA*        CLOUDY    75  72  88 CALM      29.89S
$$

ILZ064>066-069>071-074>076-080>082-084>086-088>090-092>094-020400-
SOUTH-CENTRAL ILLINOIS

CITY           SKY/WX    TMP DP  RH WIND       PRES   REMARKS
CARBONDALE     CLOUDY    76  72  87 S6        29.89S
CAIRO*         CLEAR     75  71  88 SE3       29.88F
EFFINGHAM*     CLOUDY    71  68  90 CALM      29.92S VSB 1
MARION         CLOUDY    75  73  94 S5        29.90S
MT. VERNON     MOCLDY    73  66  78 CALM      29.90R
CENTRALIA*     CLOUDY    74  70  88 SW5       29.89R
SALEM*         CLOUDY    76  71  83 CALM      29.90R
METROPOLIS*    PTCLDY    74  71  91 CALM      29.90F
$$

ILZ067-068-072-073-078-083-087-091-020400-
SOUTHEAST ILLINOIS

CITY           SKY/WX    TMP DP  RH WIND       PRES   REMARKS
LAWRENCEVILLE  LGT RAIN  70  70 100 CALM      29.92R
FLORA*         TSTM      71  68  93 E3        29.92R
FAIRFIELD*     MOCLDY    74  71  91 CALM      29.88S THUNDER
HARRISBURG*    MOCLDY    75  72  89 SW9       29.90F
ROBINSON*      DRIZZLE   73  69  89 CALM      29.91S
$$

ABBREVIATIONS USED IN REMARKS
   TC - TEMPERATURE IN CELSIUS
  WCI - WIND CHILL INDEX
   HX - HEAT INDEX
  VSB - VISIBILITY
$$




USA.gov is the U.S. government's official web portal to all federal, state and local government web resources and services.